FW3119 Weather Reports


Display with metric or nautical units.
time (UTC)temp
F
wind
direction
speed
MPH
gust
MPH
rain 1hr
in
rain 24hr
in
rain mn
in
humidity
%
barometer
mb
20260510031513 48 188 0.0 0.0 0.00 0.57 0.00 96 944.1
20260510030011 48 195 0.0 0.0 0.00 0.57 0.00 96 944.0
20260510024510 48 213 0.0 0.0 0.00 0.57 0.00 96 943.9
20260510021512 48 193 0.0 0.0 0.00 0.57 0.00 96 943.9
20260510020007 48 202 0.0 0.0 0.00 0.57 0.00 96 943.8
20260510014505 48 197 0.0 0.0 0.00 0.57 0.00 96 943.8
20260510011520 49 215 0.0 0.0 0.00 0.57 0.00 96 943.7
20260510010012 49 227 0.0 0.0 0.00 0.57 0.00 96 943.6
20260510004511 49 182 0.0 0.0 0.00 0.57 0.00 95 943.2
20260510001511 49 198 0.0 0.0 0.00 0.57 0.00 95 943.2
20260510000009 49 194 0.0 0.0 0.00 0.57 0.00 95 942.9
20260509234517 50 190 0.0 0.0 0.00 0.57 0.00 95 942.7
20260509231516 50 238 0.0 0.0 0.00 0.57 0.00 96 942.6
20260509230016 50 211 0.0 0.0 0.00 0.57 0.57 96 942.6
20260509224517 50 192 0.0 0.0 0.00 0.57 0.57 96 942.5
20260509221600 50 200 0.0 0.0 0.00 0.57 0.57 96 942.5
20260509220057 50 206 0.0 0.0 0.00 0.57 0.57 96 942.5
20260509214557 51 183 0.0 0.0 0.00 0.57 0.57 97 942.6
20260509211516 49 217 0.0 0.0 0.01 0.57 0.57 97 943.1
20260509210017 49 212 0.0 0.0 0.01 0.57 0.57 97 943.2
20260509204515 49 241 0.0 0.0 0.01 0.57 0.57 97 943.2
20260509201520 48 174 0.0 0.0 0.03 0.56 0.56 97 943.5
20260509200019 48 164 0.0 0.0 0.04 0.56 0.56 96 943.5
20260509194519 48 250 0.0 0.0 0.06 0.56 0.56 96 943.6
20260509191546 48 221 0.0 0.0 0.08 0.55 0.55 96 943.9
20260509190046 48 187 0.0 0.0 0.07 0.53 0.53 96 943.9
20260509184546 48 224 0.0 0.0 0.08 0.52 0.52 96 943.9
20260509181542 48 189 0.0 0.0 0.06 0.48 0.48 96 943.8
20260509180041 48 223 0.0 0.0 0.04 0.46 0.46 96 943.8
20260509174540 48 166 0.0 0.0 0.03 0.45 0.45 96 943.7
20260509171550 48 180 0.0 0.0 0.02 0.43 0.43 96 943.7
20260509170059 48 220 0.0 0.0 0.01 0.42 0.42 96 943.8
20260509164550 48 174 0.0 0.0 0.02 0.42 0.42 96 943.8
20260509161554 48 188 0.0 0.0 0.03 0.41 0.41 96 944.0
20260509160046 48 169 0.0 0.0 0.04 0.41 0.41 96 944.2
20260509154545 48 211 0.0 0.0 0.04 0.40 0.40 96 944.5
20260509151550 47 150 0.0 0.0 0.05 0.38 0.38 96 945.0
20260509150103 47 186 0.0 0.0 0.05 0.37 0.37 96 945.1
20260509144551 46 213 0.0 0.0 0.04 0.36 0.36 96 945.2
20260509141545 46 162 0.0 0.0 0.02 0.33 0.33 96 944.9
20260509140043 46 179 0.0 0.0 0.03 0.33 0.33 96 944.8
20260509134543 46 178 0.0 0.0 0.04 0.32 0.32 96 944.9
20260509131544 45 181 0.0 0.0 0.06 0.31 0.31 96 945.0
20260509130047 45 182 0.0 0.0 0.06 0.30 0.30 96 945.0
20260509124548 45 182 0.0 0.0 0.08 0.28 0.28 95 945.2
20260509121600 45 184 0.0 0.0 0.09 0.25 0.25 95 945.2
20260509120052 45 184 0.0 0.0 0.09 0.24 0.24 95 945.2
20260509114602 45 184 0.0 0.0 0.08 0.21 0.21 95 945.2
20260509111553 44 181 0.0 0.0 0.06 0.17 0.17 95 945.3
20260509110052 44 173 0.0 0.0 0.05 0.15 0.15 95 945.3
20260509104552 44 221 0.0 0.0 0.04 0.14 0.14 95 945.2
20260509101627 44 207 0.0 0.0 0.02 0.11 0.11 95 945.1
20260509100027 44 202 0.0 0.0 0.02 0.11 0.11 95 945.1
20260509094531 44 186 0.0 0.0 0.01 0.10 0.10 94 945.0
20260509091545 44 211 0.0 0.0 0.02 0.09 0.09 94 945.0
20260509090057 44 205 0.0 0.0 0.03 0.09 0.09 94 945.1
20260509084546 44 202 0.0 0.0 0.04 0.09 0.09 94 945.2
20260509081542 44 217 0.0 0.0 0.04 0.07 0.07 93 945.5
20260509080055 44 225 0.0 0.0 0.03 0.06 0.06 93 945.5
20260509074540 44 175 0.0 0.0 0.03 0.05 0.05 92 945.6
20260509071521 44 219 0.0 0.0 0.02 0.03 0.03 91 945.5
20260509070017 44 220 0.0 0.0 0.03 0.03 0.03 91 945.5
20260509064515 44 136 0.0 0.0 0.02 0.02 0.02 89 945.6
20260509061528 44 133 0.0 0.0 0.01 0.01 0.01 86 945.8
20260509060026 44 132 0.0 0.0 0.00 0.00 0.00 84 945.9
20260509054525 44 124 0.0 0.0 0.00 0.00 0.00 81 946.0
20260509051524 44 123 0.0 0.0 0.00 0.00 0.00 78 946.0
20260509050042 45 123 0.0 0.0 0.00 0.00 0.00 79 946.0
20260509044523 44 123 0.0 0.0 0.00 0.00 0.00 78 946.3
20260509041519 44 122 0.0 0.0 0.00 0.00 0.00 74 946.4
20260509040017 44 121 0.0 0.0 0.00 0.00 0.00 73 946.4
20260509034517 45 121 0.0 0.0 0.00 0.00 0.00 71 946.3